SCP
1 1 1 1 1 0 0 0 0 0 0 0 0 0 0 0 0 1 1 1 1 1 1 1 1 1 1 1 1 1 2 2 2 2 2 2 2 1 1 1 0 0 0
1 1 1 1 1 1 0 0 0 0 0 0 0 0 0 0 0 1 1 1 1 1 1 1 1 1 1 1 1 1 2 2 2 2 2 2 1 1 1 1 1 0 0
1 1 1 1 1 1 1 1 0 0 0 1 1 0 0 0 0 1 1 1 1 1 1 1 1 1 1 1 1 1 1 2 2 2 2 2 1 1 1 1 1 1 1
1 1 1 1 1 1 1 1 1 0 0 1 1 1 0 0 0 1 1 1 1 1 1 1 1 1 1 1 1 1 1 2 2 2 2 2 1 1 1 1 1 1 1
1 1 1 1 1 1 1 1 1 0 0 1 1 1 1 1 1 1 1 1 1 1 1 1 1 1 1 1 1 1 1 2 2 2 2 1 1 1 1 1 1 1 1
1 1 1 1 0 0 1 1 1 1 0 0 1 1 1 1 1 1 1 1 1 1 1 1 1 1 1 1 1 2 2 2 1 1 1 1 1 2 2 2 2 1 1
1 1 1 1 0 1 1 1 1 1 1 1 1 1 1 2 2 1 1 1 1 1 1 1 1 1 1 1 2 2 2 2 1 1 1 1 1 1 2 2 2 2 2
1 0 0 1 1 1 1 1 1 1 1 1 1 1 1 1 1 1 1 1 1 1 1 1 1 1 1 1 1 1 2 2 1 1 1 1 1 1 2 2 2 2 2
0 0 0 0 1 1 1 1 1 1 1 1 1 1 1 1 1 1 1 1 1 1 1 1 1 1 1 1 1 1 1 2 1 1 1 1 1 1 1 2 2 3 3
1 1 0 0 0 1 1 0 0 0 1 1 1 1 1 1 1 1 1 1 1 1 1 1 1 1 1 1 1 1 1 1 1 1 1 1 1 1 1 1 2 3 3
1 1 0 0 0 0 0 0 0 0 0 0 1 1 1 1 1 1 1 1 1 1 0 0 0 1 1 1 1 1 1 1 1 1 1 1 1 1 1 1 1 2 3
1 1 1 0 0 0 0 0 0 0 0 0 0 0 0 0 0 1 1 1 1 1 0 0 0 0 0 0 0 0 1 1 1 1 1 1 1 1 1 1 1 1 2
1 1 1 1 0 0 0 0 0 0 0 0 0 0 0 0 0 1 1 1 1 1 1 0 0 0 0 0 0 0 0 0 0 0 1 1 1 1 1 1 1 1 1
1 1 1 1 1 1 0 0 0 0 0 0 0 0 0 0 0 0 1 1 1 1 1 0 0 0 0 0 0 0 0 0 0 0 1 1 1 1 1 1 1 1 1
1 1 1 1 1 1 1 0 0 0 0 0 0 0 0 0 0 0 1 1 1 1 1 0 0 0 0 0 0 0 0 0 0 0 1 1 1 1 1 1 1 2 2
1 1 1 1 1 1 1 0 0 0 0 0 0 0 0 0 0 0 0 1 1 1 1 0 0 0 0 0 0 0 0 0 0 1 1 1 1 1 1 1 1 1 2
1 1 1 1 1 1 1 1 1 1 0 0 0 0 0 0 0 0 0 0 0 1 1 0 0 0 0 0 0 0 0 0 0 1 1 1 1 1 1 1 1 1 1
1 1 1 1 1 1 1 1 1 1 0 0 0 0 1 1 0 0 0 0 0 0 0 0 0 0 0 0 0 0 0 0 1 1 1 1 1 1 1 1 1 1 1
1 1 1 1 1 1 1 1 1 0 0 0 0 0 1 1 0 0 0 0 0 0 0 0 0 0 0 0 0 0 0 0 1 1 1 1 1 1 1 1 1 1 1
1 1 1 1 1 1 1 1 0 0 0 0 0 0 0 0 1 1 1 0 0 1 1 1 1 1 1 0 0 0 0 0 0 1 1 1 0 0 0 1 1 1 1
1 1 1 1 1 1 1 1 1 1 1 1 0 0 0 0 1 1 1 1 1 1 1 1 1 1 1 1 1 1 0 0 0 0 0 0 0 0 0 1 1 1 1
1 1 1 1 1 1 1 1 1 1 1 1 1 1 1 1 1 1 1 1 1 1 1 1 1 1 1 1 1 1 0 0 0 0 0 0 0 0 0 0 0 1 1
2 1 1 1 1 1 1 1 1 1 1 1 1 1 1 1 2 2 2 1 1 1 1 1 1 1 1 1 1 0 0 0 0 0 0 0 0 0 0 0 0 0 0
2 2 1 1 1 1 1 1 1 1 1 1 1 1 1 2 2 2 2 1 1 1 1 1 1 1 1 1 1 1 0 0 0 0 0 0 0 0 0 0 0 0 0
2 1 1 1 1 1 1 1 1 1 1 1 1 1 1 2 2 2 1 1 1 1 1 1 1 1 1 1 1 1 0 0 0 0 0 0 0 0 0 0 0 0 0
1 1 1 1 1 1 1 1 1 1 1 1 1 1 1 1 2 1 1 1 1 1 1 1 1 1 1 1 1 1 1 0 0 0 0 0 0 0 1 0 0 0 0
Wind_Speed
5 7 9 9 10 10 10 11 11 11 10 11 11 10 10 9 9 9 9 9 9 9 8 8 8 8 8 8 8 8 7 7 6 6 7 8 8 8 8 7 7 5 7
6 8 10 9 10 10 10 11 11 11 11 11 11 11 10 10 10 9 9 8 8 8 8 8 8 9 8 8 8 8 7 6 6 5 6 7 7 7 8 8 8 5 8
7 8 8 9 10 10 10 10 11 11 11 12 11 11 10 10 10 10 9 9 8 8 8 9 9 9 9 8 8 7 6 6 5 5 5 3 4 7 8 8 8 8 8
8 8 8 9 10 10 10 10 10 11 12 12 11 10 10 10 10 10 9 9 9 9 9 9 9 8 8 8 7 6 6 6 6 6 3 3 4 8 8 8 8 8 8
8 9 9 9 10 10 10 11 11 11 11 11 11 11 11 10 10 10 10 10 10 9 9 9 9 8 8 7 7 6 6 6 6 5 3 4 4 8 8 8 8 8 8
8 9 9 9 10 10 10 11 11 11 11 11 11 11 11 10 10 10 10 10 10 10 9 8 9 9 8 7 7 6 6 6 5 3 3 4 3 7 8 8 8 7 8
8 9 9 10 10 10 11 11 11 11 10 10 10 10 11 11 11 10 10 10 10 9 9 9 9 8 8 8 7 7 6 6 3 3 4 4 5 8 8 8 7 8 8
8 9 8 10 10 10 11 10 10 10 9 9 9 9 10 10 10 10 10 10 9 9 9 8 8 8 7 7 6 6 6 6 4 4 4 4 7 8 8 8 8 8 8
7 7 7 7 8 9 10 10 9 8 8 7 7 7 7 8 9 9 9 9 9 8 8 7 6 6 6 5 5 5 6 6 4 3 5 4 8 9 8 8 8 8 8
5 5 6 6 6 6 6 8 8 7 6 5 4 4 4 6 7 8 8 8 8 7 6 5 5 4 4 3 3 3 5 5 4 4 3 5 10 9 9 8 9 9 9
5 3 4 5 5 5 5 6 5 5 3 2 2 1 1 2 4 5 7 7 7 6 4 3 3 3 2 1 2 3 3 2 4 4 4 8 10 9 9 9 9 9 9
4 3 3 3 4 4 4 4 2 2 2 1 2 2 1 2 2 4 5 5 4 3 2 1 1 0 1 1 2 3 2 4 3 4 5 10 10 9 9 8 9 9 9
4 3 3 3 3 4 3 2 1 1 1 2 3 3 2 2 1 2 1 2 1 1 0 1 0 1 1 2 2 3 3 4 3 3 5 10 9 9 9 9 9 9 9
4 3 2 3 3 3 3 2 2 2 2 2 3 3 2 2 2 2 1 1 1 1 2 2 2 3 4 4 4 4 4 3 3 3 5 9 9 10 10 10 9 9 9
4 3 2 2 2 3 3 1 3 3 3 3 2 2 3 2 2 2 2 2 2 2 2 2 3 4 4 4 4 5 4 5 4 4 3 9 9 10 10 10 10 9 9
4 4 3 2 3 3 3 2 3 3 2 2 2 3 3 2 2 3 3 3 3 2 2 2 3 3 3 3 4 4 4 4 4 3 3 5 8 9 9 10 10 9 9
4 4 4 3 3 4 4 4 3 2 3 2 2 3 4 3 3 3 3 3 3 3 4 3 4 3 3 4 4 4 4 4 4 4 4 3 3 7 9 9 9 9 9
4 4 4 3 3 4 4 3 2 3 3 3 3 3 4 4 4 3 3 3 3 3 3 2 3 3 3 4 3 3 3 4 5 5 5 4 3 3 5 8 8 9 9
4 5 4 4 3 4 4 3 3 3 3 3 3 4 5 5 4 4 3 2 3 3 3 3 3 2 3 3 2 3 3 3 4 5 5 5 4 4 3 5 8 9 9
4 4 4 4 4 4 3 3 3 3 3 3 3 3 5 4 4 3 2 3 3 3 3 3 3 3 2 2 2 3 2 3 4 4 4 4 4 5 4 4 3 5 9
3 3 4 4 3 3 2 2 2 2 2 2 2 4 4 4 4 3 2 3 3 3 2 3 3 3 2 2 2 2 3 3 4 3 3 3 4 4 4 4 3 3 4
3 3 4 3 3 3 2 1 1 1 1 1 2 3 3 3 3 3 2 2 3 2 2 3 2 2 1 2 1 1 1 2 3 2 2 3 3 3 4 5 5 5 4
3 3 3 3 3 3 3 2 2 2 1 1 1 1 2 3 3 3 3 2 2 1 1 1 2 2 1 1 2 2 1 0 1 2 2 3 3 3 3 3 5 5 5
3 2 3 3 3 3 3 2 2 1 1 0 1 1 1 2 2 2 2 2 2 2 2 1 2 1 1 1 1 2 1 1 1 1 2 2 3 3 3 4 4 4 4
3 3 2 3 3 3 3 3 2 1 1 1 1 2 1 2 2 2 2 2 2 1 2 2 2 2 1 1 1 1 2 2 1 1 0 1 2 2 2 3 3 3 4
3 3 2 3 3 2 2 2 2 2 1 2 2 1 1 1 2 2 2 2 2 2 2 2 1 2 2 1 1 1 1 1 1 1 1 0 1 1 1 2 2 2 3
Wind_Direction
77 83 66 58 57 57 56 52 52 54 55 55 59 62 66 66 66 68 68 68 70 69 70 80 79 75 73 72 70 69 67 71 73 73 77 76 71 67 62 54 56 59 65
95 88 71 63 61 61 60 59 58 57 58 58 60 63 64 66 67 68 67 66 70 71 68 77 78 76 73 72 69 67 64 65 64 69 82 79 73 68 65 59 59 60 63
95 94 76 66 64 63 64 66 63 62 61 59 60 63 63 64 66 68 68 65 67 70 71 71 70 72 72 70 67 63 60 57 56 61 70 75 72 67 63 62 62 61 61
91 93 81 72 69 67 68 68 66 64 63 61 61 64 65 64 64 66 67 66 68 70 72 73 69 68 69 68 65 59 54 48 46 49 52 59 66 69 63 60 60 60 58
81 90 88 80 75 72 70 68 67 66 64 63 60 61 62 63 64 64 64 66 67 69 71 71 71 70 68 67 63 53 44 39 40 43 51 61 62 69 67 63 58 58 59
86 92 94 87 81 77 73 70 68 66 64 63 61 59 62 63 63 63 64 62 63 64 67 70 70 69 67 62 55 44 34 37 34 46 52 60 67 70 68 62 58 61 64
94 98 100 93 88 83 77 72 68 66 65 64 63 64 63 64 64 66 65 63 61 62 65 68 69 67 65 61 51 40 31 30 42 58 57 57 65 72 70 64 60 60 67
99 102 107 104 96 87 81 75 72 69 67 66 66 69 71 71 70 68 67 66 63 65 67 66 67 68 64 57 48 36 26 26 42 67 63 58 69 71 70 65 63 62 64
103 109 115 122 113 100 92 84 78 73 72 73 72 75 81 82 80 78 73 69 67 69 70 68 69 71 67 56 39 28 26 24 21 51 66 62 67 67 67 65 64 64 62
94 107 122 125 125 120 113 103 96 87 80 83 86 84 91 100 95 88 81 77 73 72 75 75 74 75 66 51 29 25 26 15 42 49 54 66 65 62 63 66 66 64 62
82 83 97 113 119 118 123 121 124 116 109 100 101 100 124 110 102 93 91 89 83 80 81 83 82 79 69 47 13 29 26 49 51 55 55 69 69 64 64 67 69 67 63
84 74 85 86 95 102 100 116 133 116 134 130 89 72 43 51 77 95 112 108 106 99 94 108 152 128 300 74 42 36 49 57 54 64 66 70 70 69 68 71 73 70 66
99 79 77 74 76 83 81 85 72 84 74 49 51 59 44 47 67 100 138 136 143 139 32 69 100 33 54 63 61 57 56 60 56 59 66 71 70 70 70 71 72 70 70
103 82 74 80 84 90 85 75 62 54 50 46 36 53 56 40 28 30 56 45 54 47 14 23 37 43 38 49 60 63 57 67 70 68 67 74 71 69 69 70 70 70 69
118 111 89 69 78 77 75 61 76 58 42 46 23 37 60 50 34 40 48 37 37 37 30 26 45 47 42 34 48 60 63 64 73 82 76 78 77 70 69 66 65 65 64
118 112 94 75 78 79 70 57 62 64 57 45 19 16 52 43 40 45 55 34 25 23 28 44 56 52 53 45 41 44 54 66 74 86 93 82 80 77 71 67 61 59 61
115 111 97 75 62 67 67 51 55 52 55 46 19 18 41 44 41 44 45 44 24 22 29 38 48 45 53 53 45 42 39 38 60 79 85 83 80 77 73 68 63 59 61
111 103 93 82 69 68 61 54 47 49 44 47 30 20 29 43 54 49 38 42 34 28 28 37 49 51 46 47 38 32 42 32 43 65 78 77 71 71 70 69 64 59 59
103 103 103 91 79 74 66 57 44 54 44 43 39 27 21 23 47 56 32 36 44 35 27 37 41 55 58 52 52 46 45 43 38 56 64 70 70 68 69 68 66 61 56
94 97 102 100 90 87 78 61 50 44 40 46 44 39 25 17 36 53 37 41 44 44 29 41 51 47 58 55 55 53 52 59 53 52 57 62 64 66 65 67 67 59 54
109 107 99 100 91 87 85 73 59 43 32 42 43 43 30 25 32 48 44 48 50 53 34 41 49 51 41 44 68 43 25 47 62 56 53 60 66 64 64 62 59 62 56
126 119 115 111 106 95 79 81 94 78 49 50 40 35 30 32 25 30 48 61 70 67 46 45 54 39 23 28 57 74 34 10 17 47 65 65 71 64 62 61 57 54 55
134 131 130 126 121 111 105 84 70 71 50 41 55 34 18 36 31 26 40 64 67 79 83 57 67 59 25 356 45 67 82 88 327 10 50 65 72 64 59 60 61 52 54
136 119 122 128 123 121 116 111 115 123 119 78 85 67 16 39 47 39 27 57 73 69 78 48 66 58 55 2 351 18 45 101 112 19 10 41 69 70 65 62 59 52 56
131 124 124 126 115 115 122 130 121 84 90 78 80 71 39 42 37 44 28 36 64 80 85 57 50 45 62 50 15 359 15 16 35 105 70 2 26 50 66 74 77 61 60
120 128 135 127 118 117 109 111 110 98 90 73 56 52 32 40 25 30 48 32 45 62 65 58 61 52 42 46 29 32 55 44 340 55 104 116 50 14 36 71 77 74 73